Weather History for KHLN - August, 2013

Change the Weather History Date:

Friday, August 23, 2013

  Actual Average Record
Temperature  
Mean Temperature 72 °F 67 °F  
Max Temperature 84 °F 83 °F 98 °F (1967)
Min Temperature 59 °F 51 °F 33 °F (1992)
Degree Days  
Heating Degree Days 0 2  
Month to date heating degree days 3 20  
Since 1 June heating degree days 149 183  
Since 1 July heating degree days 3 47  
Cooling Degree Days 7 3  
Month to date cooling degree days 149 124  
Year to date cooling degree days 457 362  
Since 1 June cooling degree days 450 354  
Growing Degree Days 20 (Base 50)    
Moisture  
Dew Point 49 °F    
Average Humidity 43    
Maximum Humidity 65    
Minimum Humidity 20    
Precipitation  
Precipitation 0.01 in 0.04 in 1.16 in (2014)
Month to date precipitation 1.60 0.88  
Year to date precipitation 8.01 8.23  
Snow  
Snow 0.00 in 0.00 in 3.10 in (1992)
Month to date snowfall 0.0 0.2  
Since 1 June snowfall 0.0 0.2  
Since 1 July snowfall 0.0 0.2  
Snow Depth 0.00 in    
Sea Level Pressure  
Sea Level Pressure 29.85 in    
Wind  
Wind Speed 8 mph (SSW)    
Max Wind Speed 30 mph    
Max Gust Speed 40 mph    
Visibility 10 miles    
Events Rain , Thunderstorm    
T = Trace of Precipitation, MM = Missing Value Source: NWS Daily Summary

Daily Weather History Graph

Daily Weather History Graph

Search for Another Location

Airport or City:

Trip Planner

Search our weather history database for the weather conditions in past years. The results will help you decide how hot, cold, wet, or windy it might be!

Date:

Astronomy

Aug. 23, 2013 Rise Set
Actual Time 6:36 AM MDT 8:23 PM MDT
Civil Twilight 6:04 AM MDT 8:55 PM MDT
Nautical Twilight 5:25 AM MDT 9:34 PM MDT
Astronomical Twilight 4:42 AM MDT 10:17 PM MDT
Moon 9:27 PM MDT (8/23) 9:50 AM MDT (8/23)
Length of Visible Light 14h 50m
Length of Day
13h 46m
Waning Gibbous, 91% of the Moon is Illuminated
Aug 23
Waning Gibbous
Aug 28
Last Quarter
Sep 5
New
Sep 12
First Quarter
Sep 19
Full

Hourly Weather History & Observations

Time (MDT) Temp. Dew Point Humidity Pressure Visibility Wind Dir Wind Speed Gust Speed Precip Events Conditions
12:53 AM 75.9 °F 46.0 °F 35% 29.89 in 10.0 mi SSW 5.8 mph - N/A   Mostly Cloudy
1:53 AM 73.0 °F 48.0 °F 41% 29.87 in 10.0 mi East 10.4 mph - N/A   Mostly Cloudy
2:53 AM 68.0 °F 51.1 °F 55% 29.86 in 10.0 mi North 3.5 mph - N/A   Clear
3:53 AM 66.9 °F 52.0 °F 59% 29.87 in 10.0 mi West 3.5 mph - N/A   Clear
4:53 AM 64.9 °F 50.0 °F 58% 29.88 in 10.0 mi Calm Calm - N/A   Clear
5:53 AM 63.0 °F 50.0 °F 63% 29.90 in 10.0 mi Calm Calm - N/A   Clear
6:53 AM 61.0 °F 48.9 °F 64% 29.89 in 10.0 mi Calm Calm - N/A   Clear
7:53 AM 62.1 °F 50.0 °F 65% 29.91 in 10.0 mi Calm Calm - N/A   Clear
8:53 AM 66.0 °F 51.1 °F 59% 29.90 in 10.0 mi WNW 4.6 mph - N/A   Clear
9:53 AM 71.1 °F 52.0 °F 51% 29.91 in 10.0 mi NW 8.1 mph - N/A   Clear
10:23 AM 69.8 °F 51.8 °F 53% 29.97 in 9.0 mi North 3.5 mph - 0.00 in Rain , Thunderstorm Light Rain
10:42 AM 66.2 °F 57.2 °F 73% 29.99 in 10.0 mi Calm Calm - 0.01 in   Mostly Cloudy
10:53 AM 69.1 °F 55.9 °F 63% 29.92 in 10.0 mi North 4.6 mph - 0.01 in   Mostly Cloudy
11:53 AM 75.0 °F 54.0 °F 48% 29.88 in 10.0 mi East 5.8 mph - N/A   Clear
12:53 PM 81.0 °F 51.1 °F 35% 29.83 in 10.0 mi ENE 8.1 mph - N/A   Partly Cloudy
1:53 PM 81.0 °F 48.0 °F 31% 29.80 in 10.0 mi East 11.5 mph - N/A   Scattered Clouds
2:53 PM 81.0 °F 43.0 °F 26% 29.78 in 10.0 mi South 18.4 mph 33.4 mph 0.00 in Rain Light Rain
3:53 PM 82.0 °F 39.9 °F 22% 29.76 in 10.0 mi South 20.7 mph 32.2 mph 0.00 in   Clear
4:53 PM 81.0 °F 39.9 °F 23% 29.76 in 10.0 mi South 20.7 mph 33.4 mph N/A   Clear
5:53 PM 82.0 °F 37.9 °F 21% 29.74 in 10.0 mi SSW 11.5 mph 24.2 mph N/A   Clear
6:44 PM 78.8 °F 44.6 °F 30% 29.81 in 10.0 mi ESE 16.1 mph 26.5 mph N/A   Clear
6:53 PM 79.0 °F 44.1 °F 29% 29.76 in 10.0 mi ESE 11.5 mph - N/A   Clear
7:53 PM 80.1 °F 41.0 °F 25% 29.77 in 10.0 mi SE 9.2 mph - N/A   Clear
8:53 PM 71.1 °F 48.9 °F 45% 29.80 in 10.0 mi Variable 5.8 mph - N/A   Clear
9:53 PM 66.9 °F 52.0 °F 59% 29.83 in 10.0 mi WNW 10.4 mph - N/A   Mostly Cloudy
10:53 PM 66.0 °F 51.1 °F 59% 29.84 in 10.0 mi West 12.7 mph - N/A   Clear
11:53 PM 66.9 °F 51.1 °F 57% 29.84 in 10.0 mi West 6.9 mph - N/A   Clear